Hourly Data Report for October 27, 2013

All times are specified in Local Standard Time (LST). Add 1 hour to adjust for Daylight Saving Time where and when it is observed.

HALL BEACH A
NUNAVUT

68°46'33.000" N
81°14'33.000" W
9.10 m
2402354
71293
YUX

Download Data

Hourly Data (October 2013)
Hourly Data Report for October 27, 2013
Temp Definition
°C
Dew Point Temp Definition
°C
Rel Hum Definition
%
Wind Dir Definition
10's deg

Wind Spd Definition
km/h
Visibility Definition
km
Stn Press Definition
kPa
Hmdx Definition


Wind Chill Definition


Weather Definition


TIME
00:00 Legend Double Dagger -15.7 -17.1 89 29 21 16.1 100.15   -25 LegendNANA
01:00 Legend Double Dagger -12.0 -13.2 91 31 18 4.0 100.12   -20 LegendNANA
02:00 Legend Double Dagger -11.6 -12.8 91 32 21 4.8 100.11   -20 LegendNANA
03:00 Legend Double Dagger -11.8 -13.0 91 31 21 4.0 100.11   -20 LegendNANA
04:00 Legend Double Dagger -13.7 -15.1 89 31 24 12.9 100.12   -23 LegendNANA
05:00 Legend Double Dagger -14.7 -16.1 89 30 26 8.1 100.10   -25 LegendNANA
06:00 Legend Double Dagger -13.8 -15.1 90 31 28 12.9 100.08   -24 LegendNANA
07:00 Legend Double Dagger -13.0 -14.5 89 32 30 16.1 100.07   -23 LegendNANA
08:00 Legend Double Dagger -13.8 -15.5 87 31 30 14.5 100.07   -24 LegendNANA
09:00 Legend Double Dagger -13.6 -15.6 85 32 33 16.1 100.04   -25 LegendNANA
10:00 Legend Double Dagger -13.1 -14.8 87 32 35 4.8 100.03   -24 LegendNANA
11:00 Legend Double Dagger -12.7 -14.6 86 32 33 11.3 100.04   -23 LegendNANA
12:00 Legend Double Dagger -13.3 -15.2 86 32 33 4.0 100.04   -24 LegendNANA
13:00 Legend Double Dagger -13.2 -15.0 87 32 32 2.4 100.03   -24 LegendNANA
14:00 Legend Double Dagger -13.5 -15.5 85 32 33 6.4 100.04   -25 LegendNANA
15:00 Legend Double Dagger -14.9 -16.9 85 33 37 6.4 100.07   -27 LegendNANA
16:00 Legend Double Dagger -17.4 -19.6 83 32 30 16.1 100.08   -29 LegendNANA
17:00 Legend Double Dagger -19.4 -21.6 83 31 28 16.1 100.10   -31 LegendNANA
18:00 Legend Double Dagger -20.4 -22.7 82 31 28 16.1 100.15   -33 LegendNANA
19:00 Legend Double Dagger -20.4 -22.9 81 31 26 16.1 100.16   -32 LegendNANA
20:00 Legend Double Dagger -17.8 -20.0 83 31 30 6.4 100.15   -30 LegendNANA
21:00 Legend Double Dagger -19.9 -22.4 81 30 24 6.4 100.16   -31 LegendNANA
22:00 Legend Double Dagger -18.9 -21.3 82 31 24 16.1 100.15   -30 LegendNANA
23:00 Legend Double Dagger -18.3 -20.7 82 30 24 16.1 100.14   -29 LegendNANA

Notes on Data Quality.

Legend

  • E = Estimated
  • M = Missing
  • NA = Not Available
  • ‡ = Partner data that is not subject to review by the National Climate Archives
Date modified: